Location: Home
(42.5358°N, 72.7383°W)
Time: 01:57:11
(UTC-05:00)

Vanguard 1 Rocket - Pass Details

Date: 29 November 2021
Orbit: 651 x 4224 km, 34.3° (Epoch: 23 January)

Event Time Altitude Azimuth Distance (km) Brightness Sun altitude
Exits shadow 02:09:15 38° 140° (SE) 3,439 10.2 -52.4°
Drops below altitude 10° 02:26:31 10° 83° (E) 6,768 12.3 -49.4°
Sets 02:33:13 0° 78° (ENE) 8,172 12.9 -48.2°
